[[{"header":{"parameterUnit":"m.s-1","parameterCategory":1,"la1":30.2991,"la2":30.254,"lo1":-89.0895,"lo2":-89.0444,"dy":0.0017,"dx":0.0017,"nx":28,"ny":28,"refTime":"2024-12-15T03:00:00:Z","depth":0,"parameterNumber":2,"parameterNumberName":"U-component_of_WINDS"},"data":[0,0,0,0,0,0,0,0,0,0,0,0,0,0,0,0,0,0,0,0,0,0,0,0,0,0,0,0,0,0,0,0,0,0,0,0,0,0,0,0,0,0,0,0,0,0,0,0,0,0,0,0,0,0,0,0,0,0,-4.269,-4.269,0,-4.2678,-4.2678,-4.2678,-4.2551,-4.2548,-4.2545,-4.2542,-4.253,-4.2533,-4.2536,0,0,0,0,0,0,0,0,0,0,0,0,0,-4.2605,-4.2607,-4.269,-4.269,-4.269,-4.2678,-4.2678,-4.2678,-4.2552,-4.2548,-4.2544,-4.254,-4.253,-4.2533,-4.2536,0,0,0,0,0,0,0,0,0,0,0,0,0,-4.2622,-4.2608,-4.269,-4.2625,-4.2619,-4.2678,-4.2678,-4.2677,-4.2553,-4.2548,-4.2543,-4.2539,-4.2528,-4.2532,-4.2536,-4.2656,0,0,-4.2548,-4.255,0,0,0,0,0,0,0,0,-4.2622,-4.2626,-4.2635,-4.263,-4.2623,-4.2611,-4.2643,-4.267,-4.2554,-4.2578,-4.2542,-4.2536,-4.2561,-4.2562,-4.257,-4.2655,-4.2655,-4.2549,-4.2551,-4.2553,-4.2554,0,0,0,0,0,0,0,-4.2621,-4.2625,-4.2685,-4.2635,-4.2628,-4.2597,-4.2595,-4.2648,-4.2596,-4.2576,-4.2566,-4.2567,-4.2557,-4.2567,-4.2569,-4.2655,-4.2549,-4.2552,-4.2555,-4.2556,-4.2839,-4.2843,0,0,0,0,0,0,-4.2628,-4.2625,-4.2685,-4.2685,-4.2611,-4.2603,-4.26,-4.262,-4.2595,-4.2587,-4.2571,-4.2561,-4.2562,-4.2565,-4.2568,-4.2708,-4.2553,-4.2557,-4.2559,-4.2833,-4.284,-4.2845,0,0,0,0,0,0,-4.2627,-4.2635,-4.2686,-4.2653,-4.2657,-4.2609,-4.2633,-4.2622,-4.2632,-4.2592,-4.2582,-4.259,-4.2559,-4.2563,-4.2635,-4.2705,-4.2558,-4.2562,-4.2827,-4.2835,-4.2842,-4.2987,0,0,0,0,0,0,-4.2625,-4.2635,-4.268,-4.2654,-4.2659,-4.2753,-4.2637,-4.2625,-4.2639,-4.2626,-4.2607,-4.26,-4.2555,-4.263,-4.2639,-4.2708,-4.2565,-4.2821,-4.2831,-4.284,-4.2976,-4.2999,-4.3019,0,0,0,0,0,-4.2622,-4.2721,-4.2683,-4.2691,-4.2714,-4.2758,-4.276,-4.2707,-4.2645,-4.269,-4.2664,-4.26,-4.2696,-4.2639,-4.2648,-4.2719,-4.2816,-4.2828,-4.2839,-4.2967,-4.2995,-4.3018,0,0,0,0,0,0,-4.2755,-4.2716,-4.2673,-4.2767,-4.2767,-4.2736,-4.2791,-4.2738,-4.2755,-4.2742,-4.2675,-4.2672,-4.2756,-4.2744,-4.2681,-4.2834,-4.2745,-4.2759,-4.2839,-4.2865,-4.2886,-4.2887,-4.2568,0,0,0,0,0,-4.2796,-4.2834,-4.2798,-4.2884,-4.2886,-4.2839,-4.2856,-4.2815,-4.2812,-4.2811,-4.2791,-4.2791,-4.2821,-4.2842,-4.2867,-4.2974,-4.2968,-4.3027,-4.3049,-4.3066,-4.3079,-4.3136,-4.3162,-4.2883,-4.2883,-4.2883,0,0,-4.2879,-4.2862,-4.2891,-4.291,-4.2905,-4.2947,-4.284,-4.2888,-4.2919,-4.2818,-4.2886,-4.2872,-4.2867,-4.2958,-4.2996,-4.2951,-4.3155,-4.3081,-4.3095,-4.3099,-4.3151,-4.3177,-4.3201,-4.2891,-4.2889,-4.2888,0,0,-4.3053,-4.3044,-4.3115,-4.3112,-4.3106,-4.3074,-4.3092,-4.307,-4.3056,-4.3123,-4.3049,-4.3084,-4.3137,-4.3138,-4.3145,-4.332,-4.3263,-4.333,-4.3442,-4.3498,-4.352,-4.3539,-4.3603,-4.3626,-4.3343,-4.3344,-4.3344,0,-4.3157,-4.3217,-4.3158,-4.3212,-4.3223,-4.3134,-4.3206,-4.3207,-4.321,-4.322,-4.3168,-4.3234,-4.3224,-4.3314,-4.3357,-4.3365,-4.3384,-4.3332,-4.3521,-4.354,-4.3557,-4.3617,-4.3641,-4.3352,-4.3351,-4.335,-4.3349,0,-4.3347,-4.339,-4.3448,-4.3453,-4.3471,-4.3534,-4.3485,-4.3509,-4.3467,-4.3441,-4.3511,-4.3497,-4.3518,-4.3536,-4.3495,-4.3621,-4.3593,-4.3533,-4.3442,-4.3593,-4.3648,-4.3671,-4.3364,-4.3361,-4.3358,-4.3356,0,0,-4.3604,-4.3576,-4.3599,-4.3601,-4.3588,-4.362,-4.3679,-4.37,-4.3724,-4.3729,-4.3778,-4.3825,-4.3769,-4.3778,-4.3736,-4.3785,-4.3926,-4.3718,-4.3717,-4.3759,-4.4066,-4.4112,-4.414,-4.3888,-4.3892,-4.3895,-4.4066,0,-4.3772,-4.3871,-4.382,-4.3927,-4.3966,-4.3883,-4.3935,-4.3933,-4.3911,-4.3941,-4.3916,-4.3952,-4.3875,-4.3879,-4.3924,-4.39,-4.3987,-4.3887,-4.3933,-4.3936,-4.3938,-4.4168,-4.4217,-4.4379,-4.4087,-4.4091,-4.4094,0,-4.3981,-4.3996,-4.4107,-4.4088,-4.4102,-4.415,-4.4166,-4.4196,-4.4193,-4.4173,-4.4183,-4.413,-4.4187,-4.4097,-4.4176,-4.4109,-4.4125,-4.4116,-4.4121,-4.4124,-4.4025,-4.4179,-4.4429,-4.4455,-4.4127,-4.4124,-4.4122,0,-4.4159,-4.4206,-4.4279,-4.4283,-4.4262,-4.4298,-4.4291,-4.4283,-4.43,-4.4314,-4.4324,-4.4344,-4.4356,-4.4374,-4.4328,-4.4266,-4.4414,-4.4319,-4.44,-4.4401,-4.4435,-4.4434,-4.4693,-4.4444,-4.4444,-4.4444,-4.4443,0,-4.4353,-4.4424,-4.4359,-4.4404,-4.4481,-4.4422,-4.4501,-4.4485,-4.4479,-4.452,-4.4448,-4.4488,-4.4425,-4.4459,-4.4423,-4.4495,-4.45,-4.4487,-4.4477,-4.4494,-4.4496,-4.4504,-4.4492,-4.445,-4.4448,-4.4447,-4.4446,0,-4.4565,-4.4524,-4.4598,-4.4572,-4.4568,-4.4627,-4.4605,-4.4646,-4.4619,-4.4671,-4.468,-4.4638,-4.4674,-4.463,-4.4663,-4.4639,-4.4736,-4.4709,-4.4738,-4.473,-4.4814,-4.4807,-4.5089,-4.5123,-4.4851,-4.4854,-4.4856,0,-4.4691,-4.4744,-4.4725,-4.4748,-4.4745,-4.4782,-4.4798,-4.4743,-4.4763,-4.4764,-4.4805,-4.4835,-4.4857,-4.4919,-4.4891,-4.4916,-4.4889,-4.4986,-4.4892,-4.4908,-4.4892,-4.489,-4.4895,-4.5006,-4.5009,-4.5011,-4.5014,0,-4.4921,-4.4898,-4.4925,-4.4946,-4.4968,-4.4981,-4.4989,-4.5011,-4.4953,-4.498,-4.5016,-4.5033,-4.5066,-4.5097,-4.5115,-4.5108,-4.5052,-4.5043,-4.5063,-4.5082,-4.5097,-4.5091,-4.4791,-4.5037,-4.5035,-4.5033,-4.5032,-4.5031,-4.5094,-4.5138,-4.5132,-4.5165,-4.5165,-4.5175,-4.5212,-4.519,-4.5219,-4.5242,-4.5208,-4.5254,-4.525,-4.5267,-4.5267,-4.5303,-4.5261,-4.529,-4.5297,-4.5306,-4.5319,-4.5091,-4.5305,-4.5305,-4.5304,-4.5303,-4.5303,0,-4.5321,-4.5314,-4.5344,-4.5358,-4.5384,-4.5329,-4.5335,-4.5361,-4.5402,-4.5404,-4.5426,-4.5469,-4.5499,-4.5475,-4.55,-4.5533,-4.5509,-4.5542,-4.5539,-4.5539,-4.5354,-4.5335,-4.5562,-4.5562,-4.5562,-4.5562,-4.5562,-4.5562,-4.5442,-4.5514,-4.5491,-4.5563,-4.5554,-4.5599,-4.5607,-4.5616,-4.5617,-4.5668,-4.5693,-4.5677,-4.5668,-4.5692,-4.5718,-4.571,-4.5723,-4.5766,-4.575,-4.5577,-4.5552,-4.5528,-4.5509,-4.577,-4.577,-4.5932,-4.5933,-4.5934]},{"header":{"parameterUnit":"m.s-1","parameterCategory":1,"la1":30.2991,"la2":30.254,"lo1":-89.0895,"lo2":-89.0444,"dy":0.0017,"dx":0.0017,"nx":28,"ny":28,"refTime":"2024-12-15T03:00:00:Z","depth":0,"parameterNumber":3,"parameterNumberName":"V-component_of_WINDS"},"data":[0,0,0,0,0,0,0,0,0,0,0,0,0,0,0,0,0,0,0,0,0,0,0,0,0,0,0,0,0,0,0,0,0,0,0,0,0,0,0,0,0,0,0,0,0,0,0,0,0,0,0,0,0,0,0,0,0,0,-0.1946,-0.1947,0,-0.2015,-0.2015,-0.2016,-0.2015,-0.2015,-0.2014,-0.2013,-0.2087,-0.209,-0.2093,0,0,0,0,0,0,0,0,0,0,0,0,0,-0.1817,-0.1819,-0.1946,-0.1947,-0.1948,-0.2014,-0.2015,-0.2016,-0.2016,-0.2014,-0.2013,-0.2012,-0.2086,-0.2089,-0.2093,0,0,0,0,0,0,0,0,0,0,0,0,0,-0.1878,-0.182,-0.1946,-0.1955,-0.1957,-0.2014,-0.2015,-0.2017,-0.2016,-0.2014,-0.2013,-0.2012,-0.2085,-0.2089,-0.2093,-0.2147,0,0,-0.2106,-0.2108,0,0,0,0,0,0,0,0,-0.1874,-0.1883,-0.1953,-0.1955,-0.1956,-0.2005,-0.1997,-0.2061,-0.2016,-0.1994,-0.2013,-0.2011,-0.2061,-0.2067,-0.2083,-0.2151,-0.2154,-0.2107,-0.2109,-0.2111,-0.2112,0,0,0,0,0,0,0,-0.187,-0.188,-0.1973,-0.1954,-0.1956,-0.1957,-0.1964,-0.2009,-0.2034,-0.1995,-0.1995,-0.2003,-0.2062,-0.2079,-0.2085,-0.2155,-0.2107,-0.211,-0.2113,-0.2115,-0.2269,-0.227,0,0,0,0,0,0,-0.1864,-0.1876,-0.1971,-0.1975,-0.1911,-0.196,-0.1968,-0.1991,-0.2034,-0.2039,-0.2005,-0.2003,-0.2073,-0.208,-0.2088,-0.2153,-0.2111,-0.2115,-0.2117,-0.2267,-0.2269,-0.2271,0,0,0,0,0,0,-0.1861,-0.1872,-0.1968,-0.1926,-0.1938,-0.1964,-0.1989,-0.1993,-0.201,-0.2041,-0.2045,-0.2017,-0.2072,-0.2082,-0.2132,-0.2156,-0.2117,-0.2121,-0.2266,-0.2268,-0.227,-0.2285,0,0,0,0,0,0,-0.1857,-0.1871,-0.1891,-0.1926,-0.194,-0.2011,-0.1991,-0.1995,-0.2017,-0.2016,-0.2054,-0.2059,-0.2071,-0.2125,-0.2136,-0.2161,-0.2124,-0.2264,-0.2267,-0.2269,-0.2282,-0.2287,-0.2291,0,0,0,0,0,-0.1852,-0.1894,-0.1892,-0.1904,-0.1966,-0.2012,-0.202,-0.2033,-0.2019,-0.204,-0.2059,-0.2058,-0.2151,-0.2131,-0.2143,-0.2169,-0.2262,-0.2266,-0.2269,-0.228,-0.2286,-0.2291,0,0,0,0,0,0,-0.1863,-0.1899,-0.1898,-0.1951,-0.1978,-0.2012,-0.2039,-0.2039,-0.2072,-0.2069,-0.2084,-0.2093,-0.2143,-0.2161,-0.2137,-0.2223,-0.2205,-0.2211,-0.2209,-0.2215,-0.222,-0.2215,-0.2128,0,0,0,0,0,-0.1871,-0.1905,-0.1934,-0.1979,-0.1993,-0.2013,-0.2034,-0.204,-0.207,-0.2082,-0.2105,-0.2134,-0.217,-0.2194,-0.2228,-0.2284,-0.2292,-0.2308,-0.2313,-0.2316,-0.2322,-0.2352,-0.2359,-0.2282,-0.2282,-0.2282,0,0,-0.189,-0.1913,-0.1934,-0.1982,-0.2004,-0.2039,-0.2023,-0.2061,-0.2087,-0.2088,-0.2136,-0.2154,-0.2188,-0.2241,-0.2266,-0.2258,-0.2344,-0.2321,-0.2323,-0.2327,-0.2356,-0.2364,-0.237,-0.2285,-0.2284,-0.2284,0,0,-0.1941,-0.1962,-0.2001,-0.2022,-0.2055,-0.2068,-0.2077,-0.211,-0.2121,-0.217,-0.217,-0.2202,-0.2264,-0.2287,-0.2308,-0.2365,-0.2365,-0.2376,-0.24,-0.243,-0.2436,-0.2441,-0.2462,-0.2469,-0.2381,-0.2381,-0.2381,0,-0.196,-0.2011,-0.2021,-0.2059,-0.208,-0.208,-0.2119,-0.214,-0.2183,-0.2198,-0.2188,-0.2264,-0.2287,-0.2345,-0.2358,-0.2375,-0.2386,-0.2372,-0.2434,-0.2439,-0.2445,-0.2464,-0.2472,-0.2382,-0.2382,-0.2382,-0.2382,0,-0.2033,-0.2069,-0.2096,-0.2136,-0.216,-0.2198,-0.2214,-0.2237,-0.2241,-0.2255,-0.2304,-0.2331,-0.2371,-0.2385,-0.239,-0.2444,-0.2437,-0.243,-0.2413,-0.2453,-0.2472,-0.2479,-0.2384,-0.2383,-0.2383,-0.2383,0,0,-0.2095,-0.2137,-0.2147,-0.2164,-0.2199,-0.2227,-0.2265,-0.2302,-0.2322,-0.2351,-0.2384,-0.2434,-0.2427,-0.245,-0.2458,-0.2483,-0.2526,-0.2473,-0.2474,-0.2482,-0.2587,-0.2592,-0.2601,-0.2526,-0.2527,-0.2529,-0.2584,0,-0.215,-0.2217,-0.2225,-0.2285,-0.2318,-0.2317,-0.235,-0.2375,-0.2389,-0.2419,-0.2435,-0.2471,-0.2459,-0.2472,-0.2497,-0.2516,-0.2548,-0.2512,-0.2557,-0.2559,-0.2549,-0.2611,-0.2617,-0.2668,-0.2591,-0.2593,-0.2593,0,-0.2224,-0.2252,-0.2314,-0.2343,-0.2357,-0.2387,-0.242,-0.2449,-0.2478,-0.2486,-0.251,-0.2514,-0.2553,-0.2533,-0.2588,-0.2564,-0.2583,-0.2594,-0.2596,-0.2602,-0.2579,-0.2618,-0.2685,-0.2692,-0.2605,-0.2604,-0.2603,0,-0.2262,-0.2317,-0.2361,-0.2375,-0.241,-0.2431,-0.2446,-0.2473,-0.2494,-0.2524,-0.2538,-0.2572,-0.2591,-0.2618,-0.2631,-0.2615,-0.2685,-0.2666,-0.2694,-0.2694,-0.271,-0.2709,-0.2781,-0.2721,-0.2721,-0.2721,-0.272,0,-0.2323,-0.2362,-0.2378,-0.2405,-0.2448,-0.2457,-0.2499,-0.2514,-0.2538,-0.2568,-0.257,-0.2598,-0.2613,-0.2644,-0.2655,-0.2699,-0.2708,-0.2716,-0.2718,-0.2716,-0.2715,-0.2729,-0.2726,-0.2723,-0.2722,-0.2722,-0.2721,0,-0.2375,-0.2388,-0.2435,-0.2463,-0.2471,-0.2501,-0.2525,-0.2551,-0.2564,-0.2602,-0.2612,-0.2632,-0.2668,-0.2683,-0.2729,-0.2735,-0.2786,-0.2786,-0.2776,-0.2777,-0.2804,-0.2801,-0.2888,-0.29,-0.2831,-0.2832,-0.2833,0,-0.2413,-0.2442,-0.2472,-0.2492,-0.2507,-0.2539,-0.256,-0.257,-0.2592,-0.2625,-0.2647,-0.2683,-0.2712,-0.2771,-0.279,-0.2824,-0.2825,-0.2853,-0.283,-0.2827,-0.2826,-0.2824,-0.2827,-0.2858,-0.2858,-0.2859,-0.2859,0,-0.248,-0.2484,-0.2514,-0.2545,-0.2569,-0.2594,-0.2619,-0.2636,-0.2649,-0.2674,-0.271,-0.2732,-0.2777,-0.2813,-0.2847,-0.2864,-0.2865,-0.2866,-0.2874,-0.2873,-0.2866,-0.287,-0.2788,-0.2864,-0.2864,-0.2863,-0.2863,-0.2863,-0.2527,-0.2552,-0.2576,-0.2609,-0.2628,-0.265,-0.2676,-0.269,-0.272,-0.2756,-0.276,-0.2799,-0.2826,-0.2872,-0.289,-0.2921,-0.2914,-0.2926,-0.2929,-0.2932,-0.2934,-0.286,-0.2927,-0.2927,-0.2927,-0.2927,-0.2927,0,-0.2594,-0.2609,-0.2638,-0.2672,-0.2697,-0.2692,-0.2719,-0.2741,-0.2774,-0.2798,-0.2826,-0.2867,-0.2901,-0.2921,-0.2956,-0.2976,-0.2977,-0.2985,-0.2984,-0.2988,-0.2938,-0.2927,-0.2984,-0.2984,-0.2984,-0.2984,-0.2984,-0.2984,-0.2632,-0.2674,-0.268,-0.2732,-0.2747,-0.2783,-0.2799,-0.282,-0.2839,-0.2884,-0.2911,-0.2924,-0.2946,-0.2982,-0.3013,-0.3018,-0.3031,-0.3039,-0.3044,-0.2998,-0.2992,-0.2986,-0.2976,-0.3042,-0.3042,-0.3092,-0.3092,-0.3093]}]]